FW7213 Weather Reports


Display with metric or nautical units.
time (UTC)temp
F
wind
direction
speed
MPH
gust
MPH
rain 1hr
in
rain 24hr
in
rain mn
in
humidity
%
barometer
mb
20260906085058 75 0 0.0 0.0 0.00 0.23 0.00 97 1012.9
20260906084604 75 0 0.0 1.0 0.00 0.23 0.00 97 1012.8
20260906084058 75 0 0.0 1.0 0.00 0.23 0.00 97 1012.8
20260906083558 75 0 0.0 0.0 0.00 0.23 0.00 97 1012.8
20260906083103 75 0 0.0 0.0 0.00 0.23 0.00 97 1012.8
20260906082557 75 0 0.0 0.0 0.00 0.23 0.00 97 1012.7
20260906082057 75 0 0.0 1.0 0.00 0.23 0.00 97 1012.7
20260906081600 75 0 0.0 1.0 0.00 0.23 0.00 97 1012.7
20260906081057 75 0 0.0 1.0 0.00 0.23 0.00 97 1012.6
20260906080558 75 0 0.0 1.0 0.00 0.23 0.00 97 1012.5
20260906080106 75 0 0.0 1.0 0.00 0.23 0.00 97 1012.6
20260906075558 75 0 0.0 1.0 0.00 0.24 0.00 97 1012.6
20260906075059 75 0 0.0 0.0 0.00 0.24 0.00 97 1012.9
20260906074606 75 0 0.0 0.0 0.00 0.24 0.00 97 1012.7
20260906074057 75 0 0.0 0.0 0.00 0.24 0.00 97 1012.7
20260906073559 75 0 0.0 1.0 0.00 0.24 0.00 97 1012.8
20260906073103 75 0 0.0 1.0 0.00 0.24 0.00 97 1012.7
20260906072558 75 0 0.0 0.0 0.00 0.24 0.00 97 1012.7
20260906072057 75 0 0.0 0.0 0.00 0.24 0.00 97 1012.7
20260906071611 75 0 0.0 0.0 0.00 0.24 0.00 97 1012.8
20260906071057 75 0 0.0 1.0 0.00 0.24 0.00 97 1012.9
20260906070558 75 0 0.0 1.0 0.00 0.24 0.00 97 1012.9
20260906070110 75 0 0.0 0.0 0.00 0.24 0.00 97 1012.9
20260906065558 75 0 0.0 0.0 0.00 0.24 0.00 97 1012.9
20260906065058 75 0 0.0 0.0 0.00 0.24 0.00 97 1012.8
20260906064603 76 0 0.0 0.0 0.00 0.24 0.00 97 1012.8
20260906064059 76 0 0.0 0.0 0.00 0.24 0.00 97 1012.8
20260906063557 76 0 0.0 0.0 0.00 0.24 0.00 97 1012.8
20260906063102 76 0 0.0 0.0 0.00 0.24 0.00 97 1012.7
20260906062601 76 0 0.0 0.0 0.00 0.24 0.00 97 1012.9
20260906062057 76 0 0.0 0.0 0.00 0.24 0.00 97 1012.9
20260906061603 76 0 0.0 0.0 0.00 0.24 0.00 97 1012.8
20260906061058 76 0 0.0 0.0 0.00 0.24 0.00 97 1012.7
20260906060558 76 0 0.0 0.0 0.00 0.24 0.00 97 1012.8
20260906060155 76 0 0.0 0.0 0.00 0.24 0.00 97 1012.9
20260906055558 76 0 0.0 1.0 0.00 0.24 0.00 97 1012.9
20260906055058 76 153 0.0 1.0 0.00 0.24 0.00 97 1013.0
20260906054618 76 156 0.0 1.0 0.00 0.24 0.00 97 1013.0
20260906054059 76 0 0.0 1.0 0.00 0.24 0.00 97 1013.0
20260906053558 76 0 0.0 1.0 0.00 0.24 0.00 97 1013.1
20260906053105 76 157 0.0 1.0 0.00 0.24 0.00 97 1013.1
20260906052559 76 0 0.0 0.0 0.00 0.24 0.00 97 1013.1
20260906052059 76 0 0.0 1.0 0.00 0.24 0.00 97 1013.3
20260906051605 76 0 0.0 1.0 0.00 0.24 0.00 97 1013.3
20260906051058 76 0 0.0 1.0 0.00 0.24 0.00 97 1013.1
20260906050557 76 146 0.0 1.0 0.00 0.24 0.00 97 1013.2
20260906050116 76 148 0.0 1.0 0.00 0.24 0.00 97 1013.3
20260906045557 76 148 0.0 1.0 0.00 0.24 0.24 97 1013.3
20260906045057 76 0 0.0 1.0 0.00 0.24 0.24 97 1013.3
20260906044559 76 0 0.0 1.0 0.00 0.24 0.24 97 1013.2
20260906044100 76 0 0.0 1.0 0.00 0.24 0.24 97 1013.3
20260906043557 76 0 0.0 0.0 0.00 0.24 0.24 97 1013.3
20260906043112 76 0 0.0 1.0 0.00 0.24 0.24 97 1013.4
20260906042558 76 0 0.0 1.0 0.00 0.24 0.24 97 1013.3
20260906042058 76 145 0.0 1.0 0.00 0.24 0.24 97 1013.4
20260906041602 76 0 0.0 1.0 0.00 0.24 0.24 97 1013.5
20260906041058 77 145 0.0 0.0 0.00 0.24 0.24 97 1013.4
20260906040557 77 0 0.0 0.0 0.00 0.24 0.24 97 1013.5
20260906040106 77 0 0.0 0.0 0.00 0.24 0.24 97 1013.5
20260906035558 77 0 0.0 0.0 0.00 0.24 0.24 97 1013.6
20260906035058 77 0 0.0 0.0 0.00 0.24 0.24 97 1013.8
20260906034606 77 0 0.0 0.0 0.00 0.24 0.24 97 1014.0
20260906034057 77 0 0.0 0.0 0.00 0.24 0.24 97 1014.0
20260906033558 77 0 0.0 0.0 0.00 0.24 0.24 97 1014.2
20260906033107 77 0 0.0 0.0 0.00 0.24 0.24 97 1014.1
20260906032557 77 0 0.0 0.0 0.00 0.24 0.24 97 1014.1
20260906032056 77 0 0.0 0.0 0.00 0.24 0.24 97 1014.2
20260906031627 77 0 0.0 0.0 0.00 0.24 0.24 96 1014.2
20260906031056 78 0 0.0 0.0 0.00 0.24 0.24 96 1014.3
20260906030556 78 0 0.0 0.0 0.00 0.24 0.24 96 1014.2
20260906030106 78 0 0.0 0.0 0.00 0.24 0.24 96 1014.2
20260906025558 78 0 0.0 0.0 0.00 0.24 0.24 95 1014.1
20260906025056 78 0 0.0 0.0 0.00 0.24 0.24 95 1014.0
20260906024608 78 0 0.0 0.0 0.00 0.24 0.24 95 1014.0
20260906024056 79 0 0.0 2.0 0.00 0.24 0.24 94 1014.0
20260906023558 79 0 0.0 2.0 0.00 0.24 0.24 94 1013.8
20260906023112 79 145 0.0 2.0 0.00 0.24 0.24 94 1013.5
20260906022602 79 0 0.0 1.0 0.00 0.24 0.24 94 1013.5
20260906022057 79 159 0.0 1.0 0.00 0.24 0.24 94 1013.4
20260906021601 79 162 0.0 1.0 0.00 0.24 0.24 94 1013.5
20260906021056 79 156 0.0 1.0 0.00 0.24 0.24 94 1013.5
20260906020555 79 0 0.0 1.0 0.00 0.24 0.24 93 1013.5
20260906020109 79 0 0.0 0.0 0.00 0.24 0.24 93 1013.4
20260906015556 79 0 0.0 0.0 0.00 0.24 0.24 93 1013.4
20260906015056 79 197 0.0 1.0 0.00 0.24 0.24 93 1013.2
20260906014600 79 0 0.0 1.0 0.00 0.24 0.24 92 1013.2
20260906014056 79 0 0.0 1.0 0.00 0.24 0.24 92 1013.2
20260906013556 79 0 0.0 1.0 0.00 0.24 0.24 92 1013.0
20260906013110 79 0 0.0 0.0 0.00 0.24 0.24 92 1012.8
20260906012555 79 0 0.0 0.0 0.00 0.24 0.24 92 1012.7
20260906012055 79 152 0.0 0.0 0.00 0.24 0.24 93 1012.7
20260906011610 79 0 0.0 0.0 0.00 0.24 0.24 93 1012.8
20260906011055 79 152 0.0 0.0 0.00 0.24 0.24 93 1012.8
20260906010555 79 0 0.0 0.0 0.00 0.24 0.24 94 1012.7
20260906010109 79 0 0.0 0.0 0.00 0.24 0.24 93 1012.6
20260906005556 79 0 0.0 0.0 0.00 0.24 0.24 93 1012.5
20260906005056 79 0 0.0 0.0 0.00 0.24 0.24 93 1012.4
20260906004602 80 0 0.0 0.0 0.00 0.24 0.24 93 1012.3
20260906004055 80 0 0.0 0.0 0.00 0.24 0.24 91 1012.2
20260906003556 80 0 0.0 0.0 0.00 0.24 0.24 90 1012.4
20260906003105 80 0 0.0 0.0 0.00 0.24 0.24 89 1012.3
20260906002559 81 0 0.0 0.0 0.00 0.24 0.24 89 1012.2
20260906002056 81 0 0.0 0.0 0.00 0.24 0.24 87 1012.3
20260906001604 81 0 0.0 0.0 0.00 0.24 0.24 86 1012.3
20260906001056 82 0 0.0 0.0 0.00 0.24 0.24 85 1012.2
20260906000556 83 0 0.0 0.0 0.00 0.24 0.24 85 1012.3
20260906000110 83 0 0.0 2.0 0.00 0.24 0.24 82 1012.2
20260905235556 84 0 0.0 2.0 0.00 0.24 0.24 81 1012.1
20260905235056 85 0 0.0 2.0 0.00 0.24 0.24 80 1012.3
20260905234603 85 0 0.0 2.0 0.00 0.24 0.24 79 1012.3
20260905234059 86 0 0.0 2.0 0.00 0.24 0.24 78 1012.4
20260905233556 87 214 0.0 2.0 0.00 0.24 0.24 80 1012.4
20260905233106 87 237 0.0 1.0 0.00 0.24 0.24 79 1012.4
20260905232556 87 0 0.0 1.0 0.00 0.24 0.24 77 1012.5
20260905232056 88 0 0.0 2.0 0.00 0.24 0.24 79 1012.7
20260905231618 88 165 0.0 2.0 0.00 0.24 0.24 80 1012.7
20260905231055 88 0 0.0 4.0 0.00 0.24 0.24 75 1012.7
20260905230555 88 245 1.0 4.0 0.00 0.24 0.24 75 1012.6
20260905230104 89 226 0.0 4.0 0.00 0.24 0.24 75 1012.6
20260905225555 89 0 2.0 4.0 0.00 0.24 0.24 74 1012.6
20260905225056 90 278 1.0 4.0 0.00 0.24 0.24 72 1012.7
20260905224604 90 212 1.0 4.0 0.00 0.24 0.24 75 1012.7
20260905224055 91 169 2.0 3.0 0.00 0.24 0.24 75 1012.8
20260905223555 91 173 0.0 2.0 0.00 0.24 0.24 71 1013.0
20260905223101 90 0 0.0 2.0 0.00 0.24 0.24 73 1012.9
20260905222557 90 0 0.0 2.0 0.00 0.24 0.24 72 1013.0
20260905222055 90 266 0.0 2.0 0.00 0.24 0.24 73 1013.0
20260905221626 90 0 1.0 3.0 0.00 0.24 0.24 71 1013.0
20260905221055 90 146 0.0 3.0 0.00 0.24 0.24 74 1012.9
20260905220555 90 236 0.0 2.0 0.00 0.24 0.24 70 1012.9
20260905220106 90 0 0.0 2.0 0.00 0.24 0.24 71 1012.9
20260905215556 89 143 0.0 1.0 0.00 0.25 0.24 71 1012.7
20260905215056 90 0 0.0 1.0 0.00 0.25 0.24 73 1012.6
20260905214608 90 0 0.0 1.0 0.00 0.25 0.24 70 1012.6
20260905214057 89 0 0.0 1.0 0.00 0.25 0.24 74 1012.7
20260905213556 88 0 0.0 1.0 0.00 0.25 0.24 78 1012.9
20260905213104 88 0 0.0 4.0 0.00 0.25 0.24 72 1012.9
20260905212558 88 0 1.0 4.0 0.00 0.25 0.24 73 1013.0
20260905212058 88 0 1.0 4.0 0.00 0.25 0.24 74 1013.1
20260905211601 88 150 0.0 2.0 0.00 0.25 0.24 78 1013.1
20260905211058 87 12 1.0 2.0 0.00 0.25 0.24 78 1013.0
20260905210558 87 355 0.0 3.0 0.00 0.25 0.24 81 1013.0
20260905210116 87 194 1.0 3.0 0.00 0.25 0.24 80 1013.0
20260905205557 87 87 0.0 1.0 0.00 0.25 0.24 82 1013.0
20260905205058 87 224 0.0 1.0 0.00 0.25 0.24 83 1013.0
20260905204558 86 230 0.0 1.0 0.00 0.25 0.24 79 1012.9
20260905204058 85 0 0.0 3.0 0.00 0.25 0.24 87 1012.9
20260905203600 85 20 0.0 3.0 0.00 0.25 0.24 87 1013.0
20260905203101 85 140 1.0 3.0 0.00 0.25 0.24 84 1013.3
20260905202557 84 0 0.0 1.0 0.00 0.25 0.24 85 1013.5
20260905202058 84 0 0.0 3.0 0.00 0.25 0.24 88 1013.4
20260905201602 83 0 0.0 3.0 0.00 0.25 0.24 86 1013.4
20260905201101 83 0 1.0 3.0 0.00 0.25 0.24 89 1013.5
20260905200557 83 0 0.0 0.0 0.00 0.25 0.24 92 1013.5
20260905200128 82 0 0.0 0.0 0.00 0.25 0.24 93 1013.6
20260905195601 82 0 0.0 1.0 0.00 0.25 0.24 90 1013.7
20260905195058 81 0 0.0 1.0 0.01 0.25 0.24 91 1013.7
20260905194603 81 0 0.0 1.0 0.01 0.25 0.24 95 1013.7
20260905194103 81 0 0.0 1.0 0.03 0.25 0.24 93 1013.8
20260905193558 81 65 0.0 0.0 0.05 0.25 0.24 95 1013.9
20260905193058 81 0 0.0 1.0 0.10 0.25 0.24 96 1014.0
20260905192601 80 0 0.0 1.0 0.12 0.25 0.24 95 1014.1
20260905192058 80 0 0.0 1.0 0.12 0.25 0.24 95 1014.3
20260905191559 80 0 0.0 1.0 0.12 0.25 0.24 96 1014.4
20260905191057 80 37 0.0 1.0 0.12 0.25 0.24 96 1014.7
20260905190557 79 0 0.0 1.0 0.12 0.25 0.24 96 1014.7
20260905185557 80 0 0.0 0.0 0.12 0.25 0.24 95 1014.8
20260905185101 79 0 0.0 0.0 0.11 0.24 0.23 94 1015.0
20260905184606 80 0 0.0 0.0 0.11 0.24 0.23 95 1015.2
20260905184102 80 0 0.0 1.0 0.09 0.22 0.21 94 1015.3
20260905183558 80 0 0.0 1.0 0.07 0.20 0.19 93 1015.3
20260905183102 80 0 0.0 1.0 0.01 0.14 0.13 92 1015.4
20260905182557 81 0 0.0 1.0 0.00 0.13 0.12 91 1015.6
20260905182058 81 356 0.0 1.0 0.00 0.13 0.12 91 1015.6
20260905181607 81 0 0.0 2.0 0.00 0.13 0.12 90 1015.7
20260905181057 82 0 0.0 2.0 0.00 0.13 0.12 91 1015.4
20260905180554 82 0 0.0 4.0 0.00 0.13 0.12 90 1015.4
20260905180115 82 94 1.0 4.0 0.00 0.13 0.12 89 1015.4
20260905175558 82 0 0.0 3.0 0.00 0.13 0.12 95 1015.3
20260905175102 81 0 0.0 3.0 0.00 0.13 0.12 97 1015.4
20260905174600 81 98 0.0 3.0 0.00 0.13 0.12 96 1015.6
20260905174058 80 107 0.0 2.0 0.00 0.13 0.12 93 1015.6
20260905173601 80 0 0.0 1.0 0.00 0.13 0.12 98 1015.8
20260905173127 80 0 0.0 1.0 0.00 0.13 0.12 97 1015.7
20260905172558 79 89 0.0 1.0 0.04 0.13 0.12 94 1015.5
20260905172058 79 0 0.0 1.0 0.08 0.13 0.12 95 1015.5
20260905171602 79 0 0.0 1.0 0.10 0.13 0.12 98 1015.7
20260905171058 78 0 0.0 1.0 0.11 0.13 0.12 95 1015.8
20260905170556 78 0 0.0 2.0 0.11 0.13 0.12 95 1016.0
20260905170104 78 0 0.0 2.0 0.11 0.13 0.12 96 1016.1
20260905165558 78 89 0.0 2.0 0.11 0.13 0.12 97 1016.2
20260905165100 79 328 0.0 2.0 0.11 0.13 0.12 99 1016.2
20260905164615 79 113 0.0 2.0 0.11 0.13 0.12 97 1016.4
20260905164054 78 0 0.0 2.0 0.11 0.13 0.12 95 1016.3
20260905163556 78 93 0.0 2.0 0.11 0.13 0.12 98 1016.5
20260905163101 79 0 0.0 2.0 0.11 0.13 0.12 95 1016.5
20260905162556 80 44 0.0 2.0 0.07 0.09 0.08 93 1016.5
20260905162055 80 0 0.0 1.0 0.03 0.05 0.04 94 1016.5
20260905161559 80 0 0.0 1.0 0.01 0.03 0.02 93 1016.6
20260905161058 80 0 0.0 2.0 0.00 0.02 0.01 96 1016.6
20260905160555 80 338 0.0 2.0 0.00 0.02 0.01 93 1016.5
20260905160107 80 0 0.0 2.0 0.00 0.02 0.01 92 1016.4
20260905155558 80 0 0.0 3.0 0.00 0.02 0.01 90 1016.4
20260905155055 81 0 0.0 3.0 0.00 0.02 0.01 90 1016.4
20260905154605 82 44 0.0 3.0 0.00 0.02 0.01 90 1016.2
20260905154056 82 352 0.0 1.0 0.00 0.02 0.01 89 1016.1
20260905153559 82 338 0.0 2.0 0.00 0.02 0.01 89 1016.1
20260905153057 82 309 0.0 2.0 0.00 0.02 0.01 92 1016.1
20260905152556 82 0 0.0 1.0 0.00 0.02 0.01 87 1016.2
20260905152058 83 319 0.0 3.0 0.00 0.02 0.01 86 1016.2
20260905151609 83 330 0.0 3.0 0.00 0.02 0.01 86 1016.2
20260905151055 83 301 0.0 4.0 0.00 0.02 0.01 86 1016.1
20260905150559 83 0 0.0 4.0 0.00 0.02 0.01 89 1016.1
20260905150105 82 84 0.0 2.0 0.00 0.02 0.01 90 1016.1
20260905145554 81 170 0.0 2.0 0.00 0.02 0.01 91 1016.1
20260905145055 81 0 0.0 1.0 0.00 0.02 0.01 93 1016.2
20260905144608 80 222 0.0 0.0 0.00 0.02 0.01 92 1016.1
20260905144054 80 0 0.0 0.0 0.00 0.02 0.01 93 1016.1
20260905143554 80 0 0.0 1.0 0.00 0.02 0.01 93 1016.1
20260905143102 80 0 0.0 1.0 0.00 0.02 0.01 94 1016.1
20260905142555 80 0 0.0 1.0 0.00 0.02 0.01 94 1016.1
20260905142055 79 0 0.0 1.0 0.00 0.02 0.01 95 1016.1
20260905141605 79 253 0.0 1.0 0.00 0.02 0.01 95 1016.2
20260905141055 79 0 0.0 1.0 0.00 0.02 0.01 96 1016.2
20260905140555 79 0 0.0 1.0 0.00 0.02 0.01 96 1016.2
20260905140116 78 0 0.0 1.0 0.00 0.02 0.01 97 1016.1
20260905135556 78 0 0.0 1.0 0.00 0.02 0.01 97 1016.1
20260905135055 78 0 0.0 1.0 0.00 0.02 0.01 97 1016.2
20260905134605 78 0 0.0 1.0 0.00 0.02 0.01 97 1016.2
20260905134058 78 0 0.0 1.0 0.00 0.02 0.01 97 1016.2
20260905133556 77 0 0.0 1.0 0.00 0.02 0.01 97 1016.1
20260905133105 77 0 0.0 2.0 0.00 0.02 0.01 97 1016.1
20260905132555 76 0 0.0 2.0 0.00 0.02 0.01 97 1016.1
20260905132058 76 82 0.0 1.0 0.00 0.02 0.01 97 1016.0
20260905131608 76 0 0.0 1.0 0.00 0.02 0.01 97 1016.0
20260905131055 76 309 0.0 1.0 0.00 0.02 0.01 97 1016.1
20260905130555 76 95 0.0 1.0 0.00 0.02 0.01 97 1015.9
20260905130105 76 0 0.0 1.0 0.00 0.02 0.01 97 1015.9
20260905125554 76 0 0.0 1.0 0.00 0.02 0.01 97 1015.9
20260905125058 75 0 0.0 1.0 0.00 0.02 0.01 97 1015.7
20260905124601 76 0 0.0 0.0 0.00 0.02 0.01 97 1015.7
20260905124058 75 0 0.0 0.0 0.00 0.02 0.01 97 1015.5
20260905123558 75 0 0.0 0.0 0.00 0.02 0.01 97 1015.5
20260905123109 75 0 0.0 0.0 0.00 0.02 0.01 97 1015.6
20260905122558 75 0 0.0 0.0 0.00 0.02 0.01 97 1015.5
20260905122058 75 0 0.0 0.0 0.00 0.02 0.01 97 1015.6
20260905121602 75 0 0.0 0.0 0.00 0.02 0.01 97 1015.6
20260905121058 75 0 0.0 0.0 0.00 0.02 0.01 97 1015.8
20260905120555 75 0 0.0 1.0 0.00 0.02 0.01 97 1015.7
20260905120113 75 0 0.0 1.0 0.00 0.02 0.01 97 1015.7
20260905115558 75 0 0.0 0.0 0.00 0.02 0.01 97 1015.7
20260905115055 75 0 0.0 0.0 0.00 0.02 0.01 97 1015.6
20260905114612 75 0 0.0 0.0 0.00 0.02 0.01 97 1015.6
20260905114056 75 0 0.0 0.0 0.00 0.02 0.01 97 1015.5
20260905113554 74 0 0.0 0.0 0.00 0.02 0.01 97 1015.4
20260905113101 74 0 0.0 0.0 0.00 0.02 0.01 97 1015.5
20260905112558 74 0 0.0 0.0 0.00 0.02 0.01 97 1015.4
20260905112059 74 0 0.0 0.0 0.00 0.02 0.01 97 1015.3
20260905111654 74 0 0.0 0.0 0.00 0.02 0.01 97 1015.1
20260905111058 74 0 0.0 0.0 0.00 0.02 0.01 97 1014.9
20260905110558 74 0 0.0 0.0 0.00 0.02 0.01 97 1014.9
20260905110108 74 0 0.0 0.0 0.00 0.02 0.01 97 1014.9
20260905105555 75 0 0.0 0.0 0.00 0.02 0.01 97 1014.8
20260905105057 75 0 0.0 0.0 0.00 0.02 0.01 97 1014.9
20260905104605 74 0 0.0 0.0 0.00 0.02 0.01 97 1014.9
20260905104055 75 0 0.0 0.0 0.00 0.02 0.01 97 1014.8
20260905103555 74 0 0.0 0.0 0.00 0.02 0.01 97 1015.0
20260905103104 75 0 0.0 0.0 0.00 0.02 0.01 97 1015.0
20260905102558 75 0 0.0 0.0 0.00 0.02 0.01 97 1015.0
20260905102058 75 0 0.0 0.0 0.00 0.02 0.01 97 1014.9
20260905101600 75 0 0.0 0.0 0.00 0.02 0.01 97 1014.8
20260905101059 75 0 0.0 0.0 0.00 0.02 0.01 97 1014.9
20260905100556 75 0 0.0 0.0 0.00 0.02 0.01 97 1014.9
20260905100108 75 0 0.0 0.0 0.00 0.02 0.01 97 1014.9
20260905095555 75 0 0.0 0.0 0.00 0.02 0.01 97 1014.7
20260905095055 75 0 0.0 0.0 0.00 0.02 0.01 97 1014.8
20260905094602 75 0 0.0 0.0 0.00 0.02 0.01 97 1014.8
20260905094054 75 0 0.0 0.0 0.00 0.02 0.01 97 1014.8
20260905093558 75 0 0.0 0.0 0.00 0.02 0.01 97 1014.7
20260905093122 75 0 0.0 0.0 0.00 0.02 0.01 97 1014.8
20260905092555 75 0 0.0 0.0 0.00 0.02 0.01 97 1014.8
20260905092058 75 0 0.0 0.0 0.00 0.02 0.01 97 1014.8
20260905091601 75 0 0.0 0.0 0.00 0.02 0.01 97 1014.6
20260905091056 75 0 0.0 0.0 0.00 0.02 0.01 97 1014.8
20260905090558 75 0 0.0 0.0 0.00 0.02 0.01 97 1014.7
20260905090108 75 0 0.0 0.0 0.00 0.02 0.01 97 1014.6
20260905085555 75 0 0.0 0.0 0.00 0.02 0.01 97 1014.7